User: anonymous   Login
Location: Seminole
(32.7190°N, 102.6440°W)
Time: 17:57:51
(UTC-05:00)
Language:

Meteor 2-10 - Orbit

View from above orbital plane
View from above orbital plane
View from above satellite
View from above satellite

Ground track
Ground track

The orbit data is extracted from the following two-line orbital elements,

1 14452U 83109A   16181.78563481  .00000066  00000-0  21459-4 0  9993
2 14452  81.1628  72.0173 0090375 323.9225  35.5876 14.26399581698784
Epoch (UTC): 29 June 2016 18:51:18
Eccentricity: 0.0090375
inclination: 81.1628°
perigee height: 739 km
apogee height: 869 km
right ascension of ascending node: 72.0173°
argument of perigee: 323.9225°
revolutions per day: 14.26399581
mean anomaly at epoch: 35.5876°
orbit number at epoch: 69878

The dashed part of the orbit path shows where the satellite is in the earth's shadow,  

DLR